Regional Weather Roundup
Issued by NWS

Home | Current Version | Previous Version | Text Only | Print | Product List | Glossary On
Versions: 1 2 3 4 5 6 7 8 9 10 11 12 13 14 15 16 17 18 19 20 21 22 23 24 25 26 27 28 29 30 31 32 33 34 35 36 37 38 39 40 41 42 43 44 45 46 47 48 49 50
000
ASMX46 KSGX 042311
RWRMX

MEXICAN WEATHER ROUNDUP
NATIONAL WEATHER SERVICE SAN DIEGO CA
400 PM PDT WED MAY 04 2016

BAJA CALIFORNIA

CITY           SKY/WX    TMP DP  RH WIND       PRES   REMARKS
ENSENADA NW      N/A     63  32  31 W6        29.92S
LA PAZ         MOSUNNY   84  61  45 NW14      29.83F
LORETO         SUNNY     81  68  65 SE6       29.79F
MEXICALI       SUNNY     95  32  11 SE3       29.71F
S.J. DEL CABO  MOSUNNY   86  46  25 SE8       29.84F
TIJUANA        MOSUNNY   68  50  52 W20       29.94S

NORTHWESTERN MEXICO

CITY           SKY/WX    TMP DP  RH WIND       PRES   REMARKS
CHIHUAHUA      PTSUNNY   82  37  20 SE7G18    30.10F
CULIACAN       MOSUNNY   95  61  31 S9        29.81F HX  95
GUAYMAS        SUNNY     88  50  27 S12       29.76F
HERMOSILLO     SUNNY     99  39  12 SW12      29.82F
JUAREZ         SUNNY     84  37  18 E12       30.03F
LOS MOCHIS     SUNNY     86  52  30 W12       29.82F
OBREGON        MOSUNNY   91  39  16 SW13      29.78F

NORTHEASTERN MEXICO

CITY           SKY/WX    TMP DP  RH WIND       PRES   REMARKS
MATAMOROS      MOSUNNY   82  54  36 E12       30.00F
MONCLOVA       MOSUNNY   86  45  23 NE14      29.99F
MONTERREY      MOSUNNY   86  50  28 E9        30.00F
NUEVO LAREDO   SUNNY     90  46  22 CALM      29.97F
PIEDRAS NEGRAS SUNNY     88  52  29 NW6       30.01S
REYNOSA        SUNNY     84  43  23 E7        29.98F
SALTILLO       PTSUNNY   73  54  49 NE17      30.19F
TORREON        PTSUNNY   88  43  20 E13       30.02F
VICTORIA       CLOUDY    77  59  53 E9        30.04F

WESTERN MEXICO

CITY           SKY/WX    TMP DP  RH WIND       PRES   REMARKS
AGUASCALIENTES MOSUNNY   88  16   7 W12       30.11F
COLIMA         MOSUNNY   82  66  57 W20       29.88S
DURANGO        PTSUNNY   84  16   8 SE7       30.11F
GUADALAJARA    MOSUNNY   91  25   9 W13       30.04F
MANZANILLO     SUNNY     81  75  83 W9        29.78S
MAZATLAN       PTSUNNY   88  61  40 W14       29.78F
PTO. VALLARTA  MOSUNNY   81  73  78 SW12      29.79F
TEPIC          MOSUNNY   91  55  29 N9        29.94F
URUAPAN        PTSUNNY   82  57  42 CALM      30.07F
ZACATECAS      MOSUNNY   86  27  11 W17       30.17F

CENTRAL MEXICO

CITY           SKY/WX    TMP DP  RH WIND       PRES   REMARKS
CUERNAVACA     MOSUNNY   93  36  13 E6        29.94F
LEON           PTSUNNY   90  27  10 CALM      30.14F
MEXICO CITY    MOSUNNY   84  39  20 NE14      30.18F
MORELIA        MOSUNNY   90  36  14 N6        30.09F
POZA RICA      DRIZZLE   70  70 100 NW9       30.00S FOG
PUEBLA         MOSUNNY   77  50  38 S13       30.21F
QUERETARO      MOSUNNY   82  52  34 E16       30.15F
S. LUIS POTOSI MOSUNNY   79  45  29 E12G23    30.13S
TAMPICO        CLOUDY    75  61  60 N6        30.04R
TOLUCA         PTSUNNY   77  46  33 S16       30.29S HAZE
VERACRUZ       CLOUDY    79  70  73 N14G25    29.93S BLWGSAND

SOUTHERN MEXICO

CITY           SKY/WX    TMP DP  RH WIND       PRES   REMARKS
ACAPULCO       MOSUNNY   84  77  79 SW5       29.79S
B. DE HUATULCO   N/A    N/A N/A N/A MISG        N/A
MINATITLAN     CLOUDY    81  68  65 N25       29.84R
OAXACA         LGT RAIN  75  61  60 E8        30.08R
PTO. ESCONDIDO CLOUDY    82  77  83 S8        29.91S
TAPACHULA      PTSUNNY   88  79  74 SW12      29.76R HX 102
TUX. GUTIERREZ MOSUNNY   86  66  51 NW18G30   29.86R
VILLAHERMOSA   PTSUNNY   86  77  74 NW8       29.88R HX  97
ZIHUATANEJO    SUNNY     88  72  58 SW6       29.80F

YUCATAN PENINSULA

CITY           SKY/WX    TMP DP  RH WIND       PRES   REMARKS
CAMPECHE       PTSUNNY   84  77  79 N12G23    29.81S
CANCUN         PTSUNNY   81  77  89 CALM      29.83R
CHETUMAL       PTSUNNY   90  75  62 SE12      29.74F HX 100
C. DEL CARMEN  CLOUDY    97  79  56 N13       29.85R HAZE    HX 115
COZUMEL        LGT RAIN  72  72 100 E6        29.84F
MERIDA         CLOUDY    82  73  74 NW7G21    29.84S

$$





USA.gov is the U.S. government's official web portal to all federal, state and local government web resources and services.